Home   Weather   Langkawi   Past weeks

Flag for Malaysia Past Weather in Langkawi, Malaysia — Yesterday and Last 2 Weeks

Now
81 °F

Partly cloudy.


Feels Like: 88 °F
Forecast: 80 / 91 °F
Wind: No wind

Location: Langkawi

Current Time: May 1, 2017 at 6:58:13 am

Latest Report: May 1, 2017 at 6:00 am


Visibility: N/A

Pressure: 29.80 "Hg

Humidity: 94%

Dew Point: 79 °F

Location of LangkawiLocation

Past Weather in Langkawi — Graph

°F

Langkawi Temperature Yesterday

Maximum temperature yesterday: 91 °F (at 12:00 pm)
Minimum temperature yesterday: 79 °F (at 6:00 am)
Average temperature yesterday: 86 °F

High & Low Weather Summary for the Past Weeks

 TemperatureHumidityPressure
High91 °F (Apr 16, 12:00 pm)100% (Apr 20, 1:00 am)29.95 "Hg (Apr 20, 1:00 am)
Low75 °F (Apr 20, 1:00 am)71% (Apr 16, 12:00 pm)29.71 "Hg (Apr 16, 6:00 pm)
Average84 °F88%29.82 "Hg
* Reported Apr 16 5:00 am — May 1 5:00 am, Langkawi, Weather by CustomWeather, © 2017

Note: Actual official high and low records may vary slightly from our data, if they occured in-between our weather recording intervals... More about our weather records

Advertising

Langkawi Weather History for the Previous 24 Hours

Scroll right to see more
 ConditionsComfort  
Time TempWeatherWind HumidityBarometerVisibility
5:00 am
Mon, May 1
81 °FPartly cloudy.3 mph94%29.80 "HgN/A
4:00 am82 °FPassing clouds.No wind89%29.83 "HgN/A
3:00 am82 °FPassing clouds.2 mph84%29.83 "HgN/A
2:00 am82 °FPassing clouds.6 mph84%29.83 "HgN/A
1:00 am84 °FThunderstorms. Partly cloudy.3 mph89%29.83 "HgN/A
12:00 am84 °FPassing clouds.3 mph89%29.86 "HgN/A
11:00 pm
Sun, Apr 30
84 °FPassing clouds.5 mph89%29.83 "HgN/A
10:00 pm86 °FPassing clouds.1 mph84%29.83 "HgN/A
9:00 pm86 °FPassing clouds.3 mph84%29.80 "HgN/A
8:00 pm86 °FPassing clouds.5 mph84%29.77 "HgN/A
7:00 pm88 °FPartly sunny.5 mph79%29.74 "HgN/A
6:00 pm90 °FPartly sunny.5 mph79%29.74 "HgN/A
5:00 pm90 °FPartly sunny.6 mph79%29.74 "HgN/A
4:00 pm90 °FBroken clouds.7 mph79%29.77 "HgN/A
3:00 pm90 °FPartly sunny.7 mph79%29.80 "HgN/A
2:00 pm90 °FPartly sunny.7 mph79%29.83 "HgN/A
1:00 pm91 °FPartly sunny.3 mph75%29.83 "HgN/A
12:00 pm91 °FPartly sunny.5 mph71%29.86 "HgN/A
11:00 am90 °FPartly sunny.6 mph75%29.89 "HgN/A
10:00 am88 °FPartly sunny.5 mph79%29.86 "HgN/A
9:00 am84 °FPartly sunny.3 mph89%29.86 "HgN/A
8:00 am81 °FPartly sunny.3 mph89%29.83 "HgN/A
7:00 am79 °FPassing clouds.2 mph94%29.80 "HgN/A
6:00 am79 °FPassing clouds.3 mph100%29.80 "HgN/A
Weather by CustomWeather, © 2017

See weather overviewHow to use our weather pages